Terminal Aerodrome Forecast
Issued by NWS Duluth, MN

Home | Current Version | Previous Version | Text Only | Print | Product List | Glossary On
Versions: 1 2 3 4 5 6 7 8 9 10 11 12 13 14 15 16 17 18 19 20 21 22 23 24
000
FTUS43 KDLH 262320
TAFDLH
TAF
KDLH 262320Z 2700/2724 30005KT P6SM SCT060 BKN120
     FM270300 VRB05KT P6SM VCTS SCT050CB OVC100
     FM270900 05005KT P6SM VCSH BKN050
     FM271600 09008KT P6SM VCSH OVC050
     FM272000 11008KT P6SM VCSH SCT020 OVC040=

USA.gov is the U.S. government's official web portal to all federal, state and local government web resources and services.